EHI
0 0 0 0 0 0 0 0 0 0 0 0 0 0 0 0 0 0 0 0 0 0 0 0 0 0 0 0 0 0 0 0 0 0 0 0 0 0 0 1 2 2 1 0
0 0 0 0 0 0 0 0 0 0 0 0 0 0 0 0 0 0 0 0 0 0 0 0 0 0 0 0 0 0 0 0 0 0 0 0 0 0 0 1 1 1 0 1
0 0 0 0 0 0 0 0 0 0 0 0 0 0 0 0 0 0 0 0 0 0 0 0 0 0 0 0 0 0 0 0 0 0 0 0 0 0 0 0 0 0 0 1
0 0 0 0 0 0 0 0 0 0 0 0 0 0 0 0 0 0 0 0 0 0 0 0 0 0 0 0 0 0 0 0 0 0 0 0 0 0 0 0 0 0 0 1
0 0 0 0 0 0 0 0 0 0 0 0 0 0 0 0 0 0 0 0 0 0 0 0 0 0 0 0 0 0 0 0 0 0 0 0 0 0 0 0 0 0 0 0
0 0 0 0 0 0 0 0 0 0 0 0 0 0 0 0 0 0 0 0 0 0 0 0 0 0 0 0 0 0 0 0 0 0 0 0 0 0 0 0 0 0 0 0
0 0 0 0 0 0 0 0 0 0 0 0 0 0 0 0 0 0 0 0 0 0 0 0 0 0 0 0 0 0 0 0 0 0 0 0 0 0 0 0 0 0 0 0
0 0 0 0 0 0 0 0 0 0 0 0 0 0 0 0 0 0 0 0 0 0 0 0 0 0 0 0 0 0 0 0 0 0 0 0 0 0 0 0 0 0 0 0
0 0 0 0 0 0 0 0 0 0 0 0 0 0 0 0 0 0 0 0 0 0 0 0 0 0 0 0 0 0 0 0 0 0 0 0 0 0 0 0 0 0 0 0
0 0 0 0 0 0 0 0 0 0 0 0 0 0 0 0 0 0 0 0 0 0 0 0 0 0 0 0 0 0 0 0 0 0 0 0 0 0 0 0 0 0 0 0
0 0 0 0 0 0 0 0 0 0 0 0 0 0 0 0 0 0 0 0 0 0 0 0 0 0 0 0 0 0 0 0 0 0 0 0 0 0 0 0 0 0 0 0
0 0 0 0 0 0 0 0 0 0 0 0 0 0 0 0 0 0 0 0 0 0 0 0 0 0 0 0 0 0 0 0 0 0 0 0 0 0 0 0 0 0 0 0
0 0 0 0 0 0 0 0 0 0 0 0 0 0 0 0 0 0 0 0 0 0 0 0 0 0 0 0 0 0 0 0 0 0 0 0 0 0 0 0 0 0 0 0
0 0 0 0 0 0 0 0 0 0 0 0 0 0 0 0 0 0 0 0 0 0 0 0 0 0 0 0 0 0 0 0 0 0 0 0 0 0 0 0 0 0 0 0
0 0 0 0 0 0 0 0 0 0 0 0 0 0 0 0 0 0 0 0 0 0 0 0 0 0 0 0 0 0 0 0 0 0 0 0 0 0 0 0 0 0 0 0
0 0 0 0 0 0 0 0 0 0 0 0 0 0 0 0 0 0 0 0 0 0 0 0 0 0 0 0 0 0 0 0 0 0 0 0 0 0 0 0 0 0 0 0
0 0 0 0 0 0 0 0 0 0 0 0 0 0 0 0 0 0 0 0 0 0 0 0 0 0 0 0 0 0 0 0 0 0 0 0 0 0 0 0 0 0 0 0
0 0 0 0 0 0 0 0 0 0 0 0 0 0 0 0 0 0 0 0 0 0 0 0 0 0 0 0 0 0 0 0 0 0 0 0 0 0 0 0 0 0 0 0
0 0 0 0 0 0 0 0 0 0 0 0 0 0 0 0 0 0 0 0 0 0 0 0 0 0 0 0 0 0 0 0 0 0 0 0 0 0 0 0 0 0 0 0
0 0 0 0 0 0 0 0 0 0 0 0 0 0 0 0 0 0 0 0 0 0 0 0 0 0 0 0 0 0 0 0 0 0 0 0 0 0 0 0 0 0 0 0
0 0 0 0 0 0 0 0 0 0 0 0 0 0 0 0 0 0 0 0 0 0 0 0 0 0 0 0 0 0 0 0 0 0 0 0 0 0 0 0 0 0 0 0
0 0 0 0 0 0 0 0 0 0 0 0 0 0 0 0 0 0 0 0 0 0 0 0 0 0 0 0 0 0 0 0 0 0 0 0 0 0 0 0 0 0 0 0
0 0 0 0 0 0 0 0 0 0 0 0 0 0 0 0 0 0 0 0 0 0 0 0 0 0 0 0 0 0 0 0 0 0 0 0 0 0 0 0 0 0 0 0
0 0 0 0 0 0 0 0 0 0 0 0 0 0 0 0 0 0 0 0 0 0 0 0 0 0 0 0 0 0 0 0 0 0 0 0 0 0 0 0 0 0 0 0
0 0 0 0 0 0 0 0 0 0 0 0 0 0 0 0 0 0 0 0 0 0 0 0 0 0 0 0 0 0 0 0 0 0 0 0 0 0 0 0 0 0 0 0
0 0 0 0 0 0 0 0 0 0 0 0 0 0 0 0 0 0 0 0 0 0 0 0 0 0 0 0 0 0 0 0 0 0 0 0 0 0 0 0 0 0 0 0
Wind_Speed
8 10 7 6 5 2 2 3 2 2 4 8 11 10 8 10 13 13 12 11 11 11 9 9 9 9 9 9 8 8 9 9 7 5 4 4 3 4 5 7 8 9 8 8
9 7 5 4 5 5 4 3 2 2 5 7 7 7 5 7 10 9 10 11 12 14 14 13 12 10 10 9 9 8 8 9 8 6 5 4 5 5 4 5 6 9 9 9
9 3 5 4 7 6 3 3 0 1 4 5 4 3 6 5 6 10 11 10 10 13 14 14 13 11 10 10 10 9 9 9 8 8 6 5 4 3 3 4 5 7 9 10
8 4 4 4 5 5 2 1 2 2 3 2 2 0 5 8 8 14 15 13 13 13 13 13 12 12 11 10 9 8 9 9 8 8 6 7 5 5 4 3 3 4 6 7
4 2 5 6 4 3 3 4 1 1 4 4 7 3 5 7 10 16 15 14 14 13 13 13 12 11 10 9 8 8 8 8 8 8 7 6 5 5 4 3 3 3 2 3
4 3 4 3 3 3 3 2 4 5 6 5 4 3 5 6 10 15 15 15 14 14 13 13 11 10 9 8 8 7 7 8 8 8 7 6 7 6 4 3 1 1 1 1
5 6 6 4 7 7 8 5 4 5 6 2 3 3 3 6 7 10 13 14 14 12 12 13 13 12 11 10 9 8 7 8 8 8 7 7 7 6 5 4 2 1 1 1
3 5 6 6 3 3 4 5 5 3 2 1 3 2 4 5 7 8 9 11 12 13 13 13 12 11 10 10 9 8 8 7 8 7 7 7 7 5 4 5 4 3 2 1
5 1 2 4 4 3 3 4 2 6 3 3 2 3 4 5 9 11 12 12 13 13 13 13 13 12 11 10 9 9 8 8 8 8 7 7 7 7 6 6 5 4 4 3
6 4 3 4 6 7 4 3 5 5 3 2 2 3 5 10 13 13 13 13 13 13 12 12 11 12 11 10 9 9 8 8 7 7 7 6 6 7 6 6 7 6 6 5
4 5 3 5 5 5 5 5 6 5 3 4 1 3 3 6 8 10 11 11 11 11 10 9 9 9 10 10 10 10 10 10 9 8 8 7 7 7 7 6 6 6 5 5
3 6 2 1 0 2 4 3 3 4 2 2 2 4 4 4 6 7 9 10 9 9 9 8 8 8 9 10 10 10 10 10 9 9 8 8 8 8 8 8 7 7 7 6
5 6 3 4 4 4 5 3 3 5 4 2 1 5 4 5 6 6 7 8 8 8 9 8 8 8 8 8 9 9 9 9 9 9 9 9 9 9 9 8 8 8 8 7
6 5 4 3 3 1 2 2 2 3 3 2 3 5 6 7 7 8 8 8 8 7 7 7 7 7 7 7 7 7 8 8 8 8 9 9 9 8 8 9 9 9 9 9
5 5 3 2 2 2 1 1 2 2 5 5 4 4 7 6 5 6 6 7 7 8 8 7 7 6 6 6 6 6 7 7 7 7 8 8 7 7 8 8 8 8 9 9
4 5 2 1 1 1 1 3 2 3 4 3 2 5 7 5 3 4 5 6 6 7 7 7 7 6 6 5 5 5 6 6 6 6 7 6 6 7 7 7 7 8 8 8
3 5 3 1 1 3 6 8 8 5 5 6 6 6 3 3 4 4 5 5 6 7 6 6 6 6 5 4 3 4 4 5 6 6 6 6 6 6 6 6 7 7 7 7
6 5 4 2 1 4 7 4 7 6 5 7 6 5 5 6 4 4 4 4 6 7 6 6 6 6 5 3 2 2 3 4 5 5 6 6 6 6 6 6 6 6 5 5
4 7 4 3 2 8 6 4 7 6 6 8 8 6 5 3 1 4 4 3 4 5 5 5 5 4 4 4 2 2 3 4 4 4 5 5 5 5 6 6 5 5 5 6
5 5 6 4 2 6 7 4 6 5 5 7 9 8 5 5 1 5 4 3 4 5 4 4 5 4 4 4 2 1 3 3 3 3 3 4 4 5 5 5 4 4 4 5
2 3 4 4 5 10 6 6 8 4 9 5 9 8 8 8 7 5 3 3 3 3 4 5 5 5 5 4 2 1 2 3 2 1 3 4 4 5 4 4 4 4 5 5
7 6 5 5 4 10 5 10 10 11 3 6 8 8 9 8 5 4 4 3 3 3 4 5 5 5 5 4 3 3 3 3 0 3 5 5 5 5 4 5 5 5 5 6
8 9 8 10 11 6 8 9 7 6 6 7 8 7 8 6 5 4 2 1 2 2 3 3 4 4 4 4 3 3 4 2 2 5 5 4 5 5 4 5 5 5 5 5
4 4 4 5 9 6 8 5 4 6 7 7 8 8 8 7 6 4 3 1 1 2 2 3 3 4 5 5 4 4 3 1 4 5 4 3 4 4 4 4 4 4 4 4
6 7 4 7 7 4 6 9 8 6 5 6 6 7 8 8 6 5 3 2 2 1 2 2 2 3 4 5 5 5 3 2 4 4 4 3 3 3 2 3 2 2 2 2
8 11 10 9 8 8 7 9 10 9 9 9 9 7 5 7 7 5 4 3 2 2 1 1 2 2 3 4 5 5 4 1 4 4 3 2 2 1 1 1 1 1 1 3
Wind_Direction
31 51 34 359 358 22 97 107 91 58 74 80 89 80 47 33 33 26 15 5 358 350 342 342 344 346 345 345 346 343 343 338 338 332 326 309 280 251 229 221 216 204 200 199
50 36 351 5 13 42 68 87 50 26 82 102 107 85 49 38 34 20 7 355 346 342 342 341 339 342 342 339 338 336 336 331 330 321 308 287 283 270 245 229 215 205 197 189
86 359 349 43 36 33 48 105 351 288 70 85 116 66 18 356 8 9 6 353 346 340 336 332 332 333 333 333 334 334 328 327 326 321 311 305 293 284 268 235 220 212 200 188
82 13 22 47 41 31 324 334 304 257 122 51 5 246 360 330 338 357 355 349 342 336 331 328 327 325 323 321 324 324 324 325 325 323 320 316 306 294 283 273 247 225 208 195
79 21 34 30 358 360 289 314 326 118 120 70 24 58 333 337 348 345 342 339 335 331 329 325 323 318 317 316 319 320 322 326 327 328 328 322 311 299 294 279 249 234 215 202
51 19 43 347 333 2 332 57 64 54 70 55 343 36 350 343 331 328 332 334 333 331 329 326 323 321 319 319 322 324 329 329 333 337 340 340 335 330 326 321 298 244 166 152
26 11 360 6 7 6 32 66 46 25 35 26 331 61 320 296 317 321 327 331 333 335 336 334 334 335 332 332 332 334 336 336 342 346 350 353 352 353 356 351 351 16 71 97
79 7 354 13 27 341 28 80 118 140 140 323 14 27 285 284 315 323 329 334 341 345 347 345 344 342 340 338 341 347 348 348 351 354 355 2 7 8 11 16 21 30 42 55
122 101 337 27 32 53 51 55 111 117 108 74 10 335 312 328 339 343 343 344 342 342 346 349 350 351 348 350 353 354 356 358 359 1 2 9 12 18 19 21 27 29 33 46
122 115 346 343 31 34 81 95 70 79 110 85 352 343 321 324 332 336 339 338 334 337 343 349 352 353 354 357 358 1 6 4 1 4 10 13 11 16 17 24 31 31 32 37
98 107 5 30 35 353 20 47 72 78 92 126 94 306 275 297 309 320 323 325 325 330 334 340 343 347 352 359 2 6 10 13 14 14 16 17 16 18 23 27 29 30 34 36
104 105 73 350 339 106 92 74 111 119 100 105 135 274 289 309 306 310 316 323 326 330 330 332 338 346 353 358 1 5 10 16 16 17 22 24 25 25 30 31 30 33 37 36
123 100 75 360 355 18 56 57 84 107 109 116 149 276 304 341 329 326 325 327 328 333 340 342 345 349 352 354 357 4 9 12 14 19 23 27 27 28 30 30 29 33 37 37
104 84 128 153 214 186 65 74 121 110 119 155 221 267 305 322 321 320 324 324 325 334 340 346 344 342 346 351 356 0 5 7 13 20 25 27 25 26 29 31 33 35 37 39
92 89 80 85 101 113 135 171 153 143 165 169 221 250 267 274 282 295 306 320 334 340 342 343 340 338 341 349 354 358 1 4 10 20 23 19 19 26 30 32 33 35 38 39
75 108 91 49 92 87 275 226 193 176 179 206 240 264 252 257 274 292 310 325 329 328 331 337 339 337 337 342 346 352 355 356 10 21 18 14 21 27 28 30 34 38 35 32
87 115 111 267 328 5 278 220 194 203 199 183 206 236 244 253 268 276 291 306 308 314 321 328 326 319 316 320 331 344 343 353 14 19 15 16 22 29 25 32 37 34 30 32
119 102 110 118 73 265 247 211 172 187 216 202 217 234 225 229 249 269 266 275 298 311 320 323 320 316 311 309 321 340 359 5 13 17 15 16 23 27 26 34 35 29 27 30
121 126 116 124 217 279 282 186 169 178 244 207 206 228 228 211 353 308 271 264 277 292 300 300 303 299 306 308 305 355 0 3 14 17 16 18 27 32 31 31 27 22 33 35
68 94 112 132 213 254 254 192 151 112 266 214 186 200 182 136 148 267 270 286 297 310 315 321 326 330 336 326 320 5 345 351 354 9 31 39 42 45 40 35 32 27 35 31
125 83 131 166 231 263 244 147 121 151 243 197 175 180 169 180 204 231 284 291 305 319 329 342 350 353 341 336 6 357 334 320 313 53 70 57 48 53 48 43 37 35 34 31
174 166 187 163 210 258 191 147 181 210 207 165 171 174 179 205 229 245 259 273 324 343 346 353 356 351 349 3 23 4 336 314 27 94 81 63 47 46 49 50 43 37 36 35
193 188 183 189 214 231 188 195 202 170 169 177 175 180 181 193 215 216 219 244 318 339 348 352 351 349 355 4 14 356 329 340 104 101 92 78 63 50 45 52 49 42 37 35
242 171 175 248 260 236 224 232 202 183 182 178 173 171 171 183 195 197 200 232 294 319 339 347 356 359 349 346 354 340 330 22 118 115 109 96 81 62 47 47 49 50 39 32
216 166 196 253 268 266 238 209 197 189 175 160 165 172 177 178 186 189 197 220 250 285 318 342 347 336 332 337 344 344 350 76 119 124 124 113 100 88 62 50 44 47 32 24
193 178 179 219 217 192 228 202 178 170 176 173 168 174 181 179 184 183 194 210 223 244 283 329 335 329 330 339 340 343 349 101 136 138 145 145 138 127 101 39 3 354 353 20